Tracking 31027 objects as of 19-Jul-2025
HD Live streaming from Space Station
objects crossing your sky now

SHIYAN 6 02 (SY-6 02)

Track SHIYAN 6 02 (SY-6 02) now!
10-day predictions


NORAD ID: 45859
Int'l Code: 2020-043A
Perigee: 607.0 km
Apogee: 790.0 km
Inclination: 98.2 °
Period: 98.6 minutes
Semi major axis: 7069 km
RCS: Unknown
Launch date: July 4, 2020
Source: People's Republic of China (PRC)
Launch site: Jiuquan Satellite Launch Center, China (JSC)
Your satellite tracking list
MOLNIYA 3-24
Track 1 satellite(s)




NASA's NSSDC Master Catalog

Two Line Element Set (TLE):
1 45859U 20043A   25199.78204848  .00000186  00000-0  43975-4 0  9994
2 45859  98.1920 209.6045 0129450 187.6346 172.2887 14.60559334268184
Source of the keplerian elements: AFSPC